Regional Weather Roundup
Issued by NWS

Home | Current Version | Previous Version | Text Only | Print | Product List | Glossary Off
Versions: 1 2 3 4 5 6 7 8 9 10 11 12 13 14 15 16 17 18 19 20 21 22 23 24 25 26 27 28 29 30 31 32 33 34 35 36 37 38 39 40 41 42 43 44 45 46 47 48 49 50

000
ASUS43 KBIS 271710
RWRND

NORTH DAKOTA REGIONAL WEATHER ROUNDUP
NATIONAL WEATHER SERVICE BISMARCK ND
1100 AM CST FRI FEB 27 2015

NOTE: "FAIR" INDICATES FEW OR NO CLOUDS BELOW 12,000 FEET WITH NO
SIGNIFICANT WEATHER AND/OR OBSTRUCTIONS TO VISIBILITY.


NDZ001>003-009>011-017-271800-
NORTHWEST NORTH DAKOTA

CITY           SKY/WX    TMP DP  RH WIND       PRES   REMARKS
WILLISTON      SUNNY      7  -4  60 SE8       30.22F WCI  -6
MINOT          SUNNY      7  -4  60 SW10      30.29F WCI  -8
MINOT AFB      SUNNY      7  -4  62 SW8       30.29F WCI  -6
$$

NDZ018>021-031>035-040>046-271800-
SOUTHWEST NORTH DAKOTA

CITY           SKY/WX    TMP DP  RH WIND       PRES   REMARKS
BISMARCK       SUNNY      9  -1  64 MISG      30.37F
DICKINSON      SUNNY     14   2  58 S20       30.17F WCI  -3
GARRISON         N/A      2  -3  80 S6        30.30F WCI  -9
HETTINGER ARPT SUNNY     13   2  61 S14       30.20F WCI  -2
$$

NDZ004>008-012>016-024-026-027-054-271800-
NORTHEAST NORTH DAKOTA

CITY           SKY/WX    TMP DP  RH WIND       PRES   REMARKS
GRAND FORKS    MOSUNNY    8  -4  58 W7        30.44F WCI  -3
GRND FRKS AFB  SUNNY     11  -4  48 W8        30.43S WCI   0
DEVILS LAKE    SUNNY    N/A N/A N/A MISG        N/A
$$

NDZ022-023-025-028>030-036>039-047>053-271800-
SOUTHEAST NORTH DAKOTA

CITY           SKY/WX    TMP DP  RH WIND       PRES   REMARKS
FARGO          SUNNY      4  -5  66 SW8       30.49S WCI  -9
JAMESTOWN      SUNNY      6  -3  66 SW10      30.39F WCI  -9
$$



USA.gov is the U.S. government's official web portal to all federal, state and local government web resources and services.